Weather in Lugoj

Romania     45°41′23″N   21°54′13″E
temp.,
°C
wind,
m/s
gust,
m/s
humid.,
%
clouds,
%
prec.,
mm/h
press.,
hPa
HPBL,
m
10 may, mon
mon1000:00+10ese22725 0.0 102214
03:00+9e22775 0.0 102116
06:00+8e22810 0.0 102015
09:00+14ene12670 0.0 1020192
12:00+20nw02520 0.0 1020665
15:00+23sw13465 0.0 1018993
18:00+23wnw22565 0.0 1017861
21:00+16e117618 0.0 101711
11 may, tue
tue1100:00+13se22775 0.0 101718
03:00+11ese22817 0.0 101713
06:00+10e228226 0.0 101613
09:00+16nne11685 0.0 1016176
12:00+21sw12550 0.0 1015614
15:00+24wsw23490 0.0 1013943
18:00+23wnw21560 0.0 1012677
21:00+17e21731 0.0 101011
12 may, wed
wed1200:00+14sse227517 0.0 101028
03:00+12e22795 0.0 100919
06:00+11e2274100 0.0 100716
09:00+15ne1266100 0.0 1006178
12:00+18wnw026293 0.2 1006383
15:00+17ese1177100 0.4 100532
18:00+19nne226935 0.1 1004277
21:00+14sse3693100 1.7 1004116
13 may, thu
thu1300:00+14sw2291100 1.6 100540
03:00+12s4994100 2.6 1006344
06:00+12s239340 0.4 100549
09:00+15s2380100 0.4 1005326
12:00+17s1266100 2.2 1004337
15:00+15sw5787100 5.3 1005413
18:00+16sw2475100 1.2 1005603
21:00+12s2286100 2.8 100613
14 may, fri
fri1400:00+11s2289100 0.4 100718
03:00+9s229131 0.4 100822
06:00+9s2395100 0.4 100958
09:00+12ene119390 1.3 1010148
12:00+16nne1171100 0.6 1010789
15:00+17sw236875 2.3 10101028
18:00+18ssw346924 1.4 10111149
21:00+13ssw489390 4.4 1012141